Location: Oberwangen
(47.4286°N, 8.9679°E)
Time: 10:03:06
(UTC+00:00)

Cosmos 1816 Rocket - Pass Details

Date: 23 October 2021
Orbit: 952 x 998 km, 82.9° (Epoch: 08 December)

Event Time Altitude Azimuth Distance (km) Brightness Sun altitude
Rises 17:54:18 0° 0° (N) 3,648 7.5 -16.3°
Reaches altitude 10° 17:57:31 10° 17° (NNE) 2,703 6.7 -16.8°
Enters shadow 18:01:28 21° 57° (ENE) 2,043 5.7 -17.5°
